Location: ShareBrained
(45.5589°N, 122.6491°W)
Time: 13:06:36
(UTC-08:00)

NOAA 19 - Pass Details

Date: 18 January 2020
Orbit: 840 x 862 km, 99.2° (Epoch: 24 February)

Event Time Altitude Azimuth Distance (km) Brightness Sun altitude
Rises 17:25:42 0° 178° (S) 3,415 8.7 -5.3°
Reaches altitude 10° 17:28:08 10° 183° (S) 2,480 8.0 -5.7°
Maximum altitude 17:33:29 51° 259° (W) 1,060 6.3 -6.6°
Drops below altitude 10° 17:38:51 10° 336° (NNW) 2,484 7.7 -7.4°
Sets 17:41:18 0° 341° (NNW) 3,421 8.3 -7.8°
